Temp
6 6 6 6 6 7 7 7 7 7 7 7 7 7 7 7 7 7 6 6 5 5 5 6 6 6 5 5 5 5 5 5 5 6 6 6 6 6 6 5 5 5 5
5 6 6 6 6 6 7 7 7 7 7 7 7 7 7 7 7 7 7 7 6 5 5 4 5 5 5 5 5 5 4 4 5 5 5 5 5 6 5 5 5 5 5
5 5 5 6 6 6 7 7 7 7 7 7 7 7 7 7 7 7 7 6 6 6 5 5 4 5 5 5 5 5 5 5 5 5 4 5 5 5 5 5 5 5 5
4 5 5 5 6 6 6 6 6 6 6 7 7 7 7 7 6 6 6 6 6 6 5 5 5 5 5 4 4 5 5 5 4 4 5 4 4 4 4 5 5 5 5
4 4 5 5 5 5 5 5 6 6 6 6 7 7 7 6 6 6 5 5 5 5 5 5 5 5 4 4 4 4 5 5 5 2 4 4 4 4 4 4 5 5 5
2 3 4 5 5 5 5 5 6 6 6 7 7 7 6 6 6 5 5 5 4 4 4 5 5 4 4 4 4 4 4 4 4 4 4 4 4 4 4 4 4 4 4
2 2 3 4 4 5 5 5 6 6 6 7 7 7 7 7 6 6 5 5 4 4 4 4 4 4 4 4 4 4 4 4 4 4 4 4 4 5 4 4 4 4 4
2 3 3 4 4 5 5 5 6 6 6 6 7 7 7 7 6 6 5 5 5 4 4 4 4 3 4 4 3 4 4 4 4 4 4 4 3 4 4 4 2 3 4
3 3 4 4 4 5 5 5 6 6 6 6 6 6 7 7 6 6 6 5 5 4 4 3 3 3 3 3 3 3 3 3 4 4 4 4 4 4 3 3 3 3 4
3 3 4 4 4 5 5 5 5 6 6 6 6 6 6 6 7 5 5 5 5 4 4 3 3 3 3 2 2 3 3 3 3 3 3 4 4 4 4 3 3 3 3
3 3 4 4 4 5 5 5 5 5 6 5 5 5 5 5 6 6 6 4 4 4 4 4 3 3 2 2 2 2 2 2 2 2 2 2 3 3 3 3 4 4 4
3 3 3 4 4 4 5 5 5 5 5 5 5 5 5 5 5 5 6 5 5 3 3 3 3 3 3 2 2 2 1 2 2 2 2 1 1 1 1 2 2 3 3
2 3 3 3 4 4 4 5 5 5 5 5 5 5 4 5 5 5 5 5 5 5 3 2 2 3 2 2 3 2 2 2 2 1 1 1 1 1 1 1 1 1 1
2 2 2 3 3 3 3 4 4 4 4 4 4 4 4 4 5 5 5 5 6 5 5 3 2 2 2 2 2 2 2 2 2 2 1 1 1 1 1 1 1 1 1
2 2 2 2 2 2 2 3 3 3 3 3 4 4 4 4 4 4 4 4 5 6 6 4 3 2 2 2 2 2 1 1 1 1 1 2 2 2 2 2 2 2 2
2 2 2 2 2 2 2 2 2 2 3 3 3 3 3 3 3 3 3 3 3 3 4 4 3 2 2 2 2 2 1 1 1 1 1 1 1 1 1 2 2 2 3
2 2 2 2 2 2 2 2 2 2 2 2 2 2 2 2 2 2 2 2 2 2 3 4 3 2 2 2 2 2 1 1 1 0 0 1 1 1 1 1 2 2 2
1 1 2 2 1 1 1 1 1 1 2 2 2 2 2 2 1 1 1 2 2 2 2 2 3 3 2 1 2 2 1 1 1 0 -0 -0 0 0 0 1 1 1 2
0 1 1 1 1 1 1 1 1 1 1 1 1 1 1 1 1 1 1 1 1 1 1 1 2 2 2 1 1 1 1 0 0 0 -0 -0 -0 0 0 1 1 1 1
0 -0 -0 -0 -0 -0 -0 0 0 0 0 0 0 0 0 0 0 0 0 0 0 0 0 1 1 1 2 1 1 0 1 1 0 -0 -1 -1 -1 -1 -1 -0 -0 -0 0
-0 -0 -1 -1 -1 -1 -0 -0 -1 -0 -1 -1 -1 -1 -1 -1 -1 -1 -1 -1 -0 -0 -0 0 -0 0 1 1 1 1 0 0 0 -0 -1 -2 -2 -2 -2 -1 -1 -1 -1
-1 -1 -1 -1 -1 -1 -1 -1 -1 -1 -1 -1 -2 -2 -2 -2 -2 -2 -2 -1 -1 -1 -1 -1 -1 -1 -0 0 0 1 0 0 0 -1 -1 -1 -2 -2 -2 -2 -2 -2 -2
-2 -2 -2 -2 -2 -2 -2 -2 -2 -2 -2 -2 -2 -2 -2 -3 -2 -3 -3 -3 -3 -2 -2 -2 -1 -1 -1 -1 -0 -0 -0 -1 -1 -1 -2 -1 -2 -2 -2 -2 -2 -2 -2
-3 -3 -3 -3 -3 -3 -3 -3 -3 -2 -3 -3 -3 -3 -3 -3 -3 -3 -3 -3 -3 -3 -3 -3 -3 -3 -2 -2 -2 -1 -1 -1 -1 -2 -2 -1 -2 -2 -2 -2 -2 -3 -3
-4 -4 -4 -3 -3 -3 -3 -3 -3 -3 -3 -3 -3 -3 -4 -4 -3 -3 -4 -4 -4 -4 -4 -4 -4 -4 -4 -4 -3 -3 -3 -2 -1 -2 -2 -2 -2 -2 -2 -2 -3 -2 -3
-4 -4 -4 -4 -4 -3 -3 -3 -3 -3 -3 -3 -4 -4 -4 -4 -4 -5 -4 -4 -4 -4 -4 -4 -4 -4 -3 -4 -4 -4 -4 -3 -3 -3 -3 -4 -3 -4 -2 -2 -3 -3 -3
Height
3113 3113 3112 3112 3111 3111 3111 3111 3111 3111 3111 3110 3110 3110 3109 3109 3109 3108 3108 3109 3110 3110 3111 3113 3112 3113 3114 3114 3115 3116 3116 3117 3117 3117 3117 3118 3118 3119 3119 3120 3121 3121 3122
3106 3106 3106 3106 3106 3105 3105 3104 3104 3104 3103 3103 3103 3102 3102 3101 3101 3100 3100 3101 3101 3102 3102 3105 3105 3106 3106 3106 3107 3108 3109 3110 3110 3111 3112 3112 3113 3114 3115 3116 3116 3117 3118
3098 3099 3099 3100 3100 3100 3099 3098 3097 3097 3097 3096 3095 3094 3093 3092 3091 3091 3091 3091 3093 3093 3094 3095 3097 3097 3098 3099 3100 3101 3102 3102 3104 3105 3105 3105 3106 3107 3109 3110 3111 3111 3113
3092 3091 3092 3093 3093 3093 3092 3092 3091 3091 3091 3089 3088 3087 3085 3084 3083 3082 3082 3082 3082 3083 3084 3084 3086 3087 3088 3089 3091 3093 3095 3096 3095 3097 3098 3097 3098 3099 3102 3103 3104 3104 3106
3086 3087 3087 3086 3086 3087 3086 3086 3086 3086 3085 3083 3081 3080 3078 3076 3074 3073 3073 3072 3072 3072 3073 3074 3075 3077 3078 3079 3081 3084 3086 3085 3090 3074 3076 3091 3091 3092 3094 3095 3097 3099 3100
3080 3080 3081 3081 3081 3081 3081 3081 3082 3080 3079 3078 3076 3074 3071 3068 3065 3064 3063 3062 3063 3062 3063 3064 3065 3066 3068 3069 3071 3072 3074 3076 3077 3082 3080 3083 3083 3085 3085 3087 3089 3092 3094
3076 3075 3075 3075 3075 3076 3076 3076 3076 3076 3074 3072 3070 3068 3065 3061 3058 3056 3055 3054 3053 3053 3053 3053 3054 3056 3058 3059 3060 3062 3064 3066 3068 3069 3072 3074 3074 3076 3079 3078 3082 3084 3087
3071 3071 3070 3070 3069 3070 3070 3070 3071 3071 3068 3066 3064 3063 3061 3057 3053 3050 3048 3047 3046 3045 3044 3044 3045 3045 3047 3049 3050 3051 3053 3055 3057 3059 3061 3062 3066 3069 3069 3069 3069 3075 3080
3067 3066 3065 3065 3064 3065 3065 3065 3065 3065 3063 3060 3058 3058 3056 3054 3050 3047 3044 3043 3041 3039 3038 3037 3036 3036 3036 3037 3039 3040 3042 3044 3046 3048 3050 3052 3055 3058 3060 3061 3066 3068 3070
3062 3062 3060 3060 3059 3059 3060 3060 3060 3059 3057 3055 3053 3051 3050 3050 3047 3046 3041 3039 3037 3035 3032 3031 3029 3029 3028 3027 3028 3030 3031 3033 3035 3036 3038 3040 3042 3045 3047 3050 3053 3058 3061
3058 3057 3056 3055 3055 3055 3055 3054 3053 3053 3052 3050 3049 3046 3044 3044 3043 3041 3040 3037 3034 3031 3028 3026 3025 3023 3021 3020 3021 3021 3021 3022 3024 3026 3027 3028 3030 3032 3034 3036 3039 3042 3047
3053 3052 3051 3050 3050 3050 3049 3048 3048 3047 3046 3044 3043 3041 3039 3038 3036 3035 3034 3033 3031 3027 3023 3021 3020 3018 3017 3015 3014 3013 3013 3014 3015 3016 3018 3020 3021 3021 3022 3024 3026 3028 3031
3049 3048 3046 3045 3045 3045 3044 3043 3043 3042 3040 3039 3038 3036 3034 3033 3030 3028 3027 3027 3025 3024 3020 3016 3013 3012 3011 3010 3008 3007 3007 3007 3007 3007 3008 3009 3010 3011 3012 3014 3015 3016 3019
3045 3043 3042 3041 3040 3039 3038 3038 3037 3036 3034 3033 3032 3031 3029 3026 3023 3021 3020 3019 3018 3018 3017 3013 3009 3006 3004 3003 3003 3002 3002 3001 3000 3000 3000 3000 3001 3002 3002 3003 3004 3006 3007
3041 3039 3037 3036 3035 3034 3033 3032 3031 3030 3028 3027 3026 3024 3022 3020 3017 3015 3013 3011 3010 3008 3009 3009 3006 3002 2998 2998 2998 2996 2994 2994 2994 2994 2993 2992 2992 2993 2994 2995 2995 2996 2996
3036 3035 3033 3032 3030 3029 3028 3026 3025 3023 3022 3020 3018 3017 3015 3012 3011 3008 3006 3004 3003 3002 2999 3000 3000 2997 2993 2991 2990 2989 2988 2988 2987 2986 2986 2986 2986 2986 2985 2985 2985 2985 2985
3031 3029 3027 3025 3023 3022 3020 3019 3018 3016 3015 3013 3011 3010 3007 3005 3004 3001 2999 2997 2995 2992 2991 2994 2990 2989 2988 2984 2982 2981 2981 2981 2981 2980 2979 2979 2979 2978 2978 2978 2977 2975 2973
3026 3024 3022 3021 3018 3016 3014 3012 3011 3009 3007 3006 3004 3003 3001 2998 2996 2994 2992 2991 2988 2985 2982 2984 2984 2981 2980 2978 2975 2973 2972 2973 2973 2972 2972 2971 2971 2971 2970 2968 2966 2965 2963
3022 3019 3017 3015 3012 3010 3008 3006 3004 3002 3000 2998 2996 2995 2993 2991 2989 2987 2985 2982 2980 2978 2974 2972 2976 2973 2971 2970 2967 2966 2966 2965 2965 2965 2964 2963 2962 2962 2961 2959 2957 2954 2950
3016 3013 3010 3008 3006 3004 3002 3000 2997 2995 2993 2992 2990 2988 2986 2984 2982 2980 2977 2975 2973 2971 2968 2964 2964 2964 2963 2961 2958 2956 2955 2954 2954 2955 2956 2954 2953 2952 2951 2949 2946 2943 2938
3009 3006 3003 3001 2998 2995 2993 2991 2989 2988 2986 2984 2981 2979 2977 2975 2974 2972 2970 2968 2965 2963 2961 2957 2955 2954 2953 2951 2949 2947 2944 2946 2947 2948 2946 2946 2944 2942 2940 2938 2937 2934 2930
3003 3000 2997 2994 2991 2988 2986 2983 2981 2980 2978 2976 2973 2971 2969 2967 2965 2964 2962 2959 2957 2954 2952 2949 2948 2945 2944 2941 2939 2937 2936 2936 2936 2938 2934 2937 2933 2934 2932 2928 2928 2927 2923
2998 2995 2991 2988 2986 2982 2979 2977 2974 2972 2971 2968 2965 2963 2961 2959 2957 2956 2954 2952 2949 2946 2943 2941 2939 2937 2935 2933 2931 2929 2926 2924 2924 2927 2924 2922 2927 2923 2923 2921 2918 2919 2916
2993 2990 2986 2983 2980 2977 2973 2970 2967 2965 2963 2960 2957 2956 2954 2952 2950 2948 2946 2944 2941 2937 2934 2932 2929 2928 2926 2924 2922 2919 2918 2916 2914 2915 2913 2908 2915 2914 2912 2912 2910 2909 2909
2986 2984 2981 2978 2974 2972 2967 2963 2960 2958 2955 2953 2950 2948 2946 2945 2942 2940 2938 2936 2934 2930 2927 2925 2922 2919 2917 2915 2913 2912 2909 2906 2903 2904 2902 2900 2900 2901 2903 2902 2901 2901 2901
2978 2975 2973 2969 2966 2964 2960 2955 2951 2948 2947 2945 2943 2940 2937 2935 2933 2930 2929 2927 2926 2923 2921 2918 2915 2912 2909 2907 2904 2902 2900 2898 2895 2893 2892 2890 2890 2887 2889 2891 2892 2891 2892
Wind_Speed
29 29 28 28 28 28 27 27 28 28 29 31 32 33 34 35 36 36 36 35 35 34 32 30 31 29 28 26 26 26 25 24 23 22 21 21 21 21 21 21 21 20 19
29 28 27 27 28 28 28 28 28 29 30 31 31 33 34 36 37 39 39 39 38 37 37 34 34 34 32 32 31 31 29 28 27 26 25 24 23 23 23 23 24 23 22
28 26 26 26 27 27 28 28 28 27 26 27 27 29 31 33 34 36 38 40 40 40 40 40 38 39 38 36 34 33 33 32 30 29 29 29 26 25 25 25 25 25 25
27 26 25 25 25 26 25 24 23 21 22 25 27 29 32 35 36 37 36 36 38 39 41 43 42 44 44 41 39 36 37 35 37 33 35 30 32 29 28 28 28 28 27
25 25 24 23 22 22 22 20 19 20 21 22 23 25 29 33 36 38 38 38 37 37 38 40 43 45 48 49 46 43 42 39 38 46 40 38 36 32 33 33 33 31 29
21 20 21 21 20 19 20 20 19 21 17 23 25 28 30 32 34 35 37 38 40 42 41 41 42 44 47 50 51 51 48 46 46 43 41 41 40 36 37 36 35 35 33
19 19 18 18 18 19 19 19 18 17 21 23 22 22 23 25 26 30 33 35 38 40 42 44 45 45 45 47 51 54 55 54 52 47 42 44 33 39 43 38 40 35 32
17 18 18 18 17 18 18 19 19 20 22 23 21 18 18 19 18 20 24 28 32 36 39 41 41 41 43 45 47 50 53 57 58 57 52 47 43 43 47 42 41 38 44
17 17 16 18 16 18 19 18 20 21 21 22 22 21 17 14 14 15 17 18 21 24 28 32 35 37 39 41 44 45 47 50 53 55 56 58 57 51 50 49 47 44 43
16 17 16 18 17 18 19 20 20 21 21 21 21 20 16 14 12 6 15 17 18 18 21 25 29 32 34 36 39 41 43 45 47 49 51 54 57 58 60 59 56 52 45
16 17 17 17 18 19 19 20 20 19 20 21 21 20 19 17 15 13 7 12 17 19 22 22 24 26 29 32 34 36 38 40 41 42 43 45 47 50 54 56 57 59 59
19 18 18 18 19 20 20 19 19 20 21 21 20 20 20 20 20 18 16 14 14 17 20 22 23 25 26 27 28 31 33 35 37 38 40 41 43 46 47 48 49 51 55
19 19 19 19 21 21 21 21 22 23 23 21 21 21 22 22 23 23 23 20 18 16 19 22 25 27 27 27 28 29 29 31 32 32 32 34 37 41 45 47 48 49 49
18 19 18 19 21 22 23 23 24 24 23 23 22 23 24 24 24 25 26 25 24 22 19 19 25 28 28 27 28 28 27 28 29 29 29 29 31 33 36 39 43 47 51
19 20 20 21 22 23 23 24 24 24 24 24 24 25 25 25 25 27 28 28 28 27 22 16 23 27 29 29 28 28 29 29 29 28 28 27 28 28 29 32 35 38 41
21 21 22 22 23 24 25 25 25 25 25 26 26 26 27 27 27 28 29 30 31 30 29 24 19 25 28 31 32 31 29 29 28 26 27 28 28 29 30 32 34 37 40
23 23 22 23 24 25 26 26 27 27 27 28 28 28 28 29 29 30 30 30 31 34 34 26 27 24 28 32 32 33 33 30 30 30 30 29 29 30 31 32 32 35 38
24 24 25 25 26 26 26 27 27 28 29 29 30 30 30 30 31 31 31 31 33 32 36 33 28 28 28 30 34 34 33 33 31 31 31 31 31 31 30 30 31 32 36
26 26 26 26 27 28 29 29 29 28 29 29 29 30 30 31 30 31 32 32 33 34 34 37 31 29 30 31 33 34 35 34 35 34 32 33 33 31 31 32 33 32 36
26 27 27 27 28 29 29 29 30 30 30 31 31 31 31 31 31 32 32 33 34 34 34 36 35 30 30 31 35 35 37 38 36 35 35 35 34 32 32 32 34 32 32
26 27 27 28 29 28 29 29 29 30 30 30 31 31 31 31 31 31 31 32 33 35 34 35 35 34 32 32 34 35 38 37 36 35 35 35 36 35 32 31 33 31 28
27 27 28 27 28 30 31 30 30 28 28 29 29 29 30 30 30 30 30 30 32 33 33 34 34 33 32 32 32 32 34 39 37 33 37 31 34 34 34 31 32 32 26
25 26 27 28 26 27 28 28 29 29 28 28 29 29 28 27 27 26 26 27 29 32 32 32 32 31 32 31 32 31 31 35 38 35 38 38 31 32 33 33 29 31 26
27 26 26 27 27 27 29 29 29 28 28 28 28 27 25 24 27 30 31 31 30 28 30 31 33 33 34 34 33 33 32 33 33 36 40 44 35 35 35 34 31 31 30
24 25 27 29 31 30 33 32 33 31 30 28 28 27 27 28 32 32 27 22 21 22 23 25 27 28 29 30 32 35 34 34 34 31 33 43 39 38 38 36 33 30 31
25 26 27 30 33 34 35 37 38 37 33 32 32 33 35 36 31 28 26 26 21 24 25 25 27 30 31 32 32 33 33 35 35 34 30 31 35 32 37 36 33 30 33
Wind_Direction
271 269 268 268 268 269 268 268 270 270 270 270 270 270 270 269 269 269 268 266 262 262 257 257 258 257 256 256 255 255 256 256 256 258 262 267 269 269 269 267 266 264 263
269 271 271 270 270 270 272 273 272 272 273 273 273 273 272 270 269 268 267 266 264 261 258 253 255 257 256 253 252 254 252 253 255 257 256 257 262 266 267 266 266 265 264
266 267 269 271 273 274 274 274 274 273 273 275 276 275 275 273 271 269 268 266 263 262 260 255 249 252 256 254 253 254 255 255 257 254 256 258 258 259 263 264 263 263 263
264 263 265 269 271 273 272 271 270 272 276 278 279 279 278 276 275 272 269 266 264 261 258 256 250 247 250 254 253 259 255 256 253 249 255 257 253 255 260 260 261 261 259
268 270 271 271 272 272 269 268 269 274 279 280 284 285 283 280 274 270 269 267 263 260 258 257 255 250 248 250 252 250 253 253 249 248 251 253 254 255 255 256 258 259 259
274 271 272 272 270 268 266 266 270 277 274 287 292 293 290 286 278 272 267 266 264 262 260 258 256 254 251 249 249 250 250 251 255 253 254 251 248 255 258 254 252 259 261
286 281 273 269 266 263 260 266 270 275 288 292 295 305 303 294 284 275 273 269 266 265 264 262 259 257 256 254 252 251 251 252 254 258 253 249 256 247 254 256 249 254 256
288 283 278 270 266 263 262 265 265 277 286 292 295 298 312 309 304 291 281 274 271 269 267 266 264 261 258 257 257 256 254 254 254 256 257 258 256 255 250 254 255 252 251
287 282 279 274 267 264 265 270 273 278 285 291 296 299 304 308 306 305 299 290 286 281 276 269 265 264 262 258 257 258 258 258 257 257 257 257 257 255 252 258 255 254 258
282 282 279 272 265 267 265 268 276 279 283 288 293 294 298 300 303 303 306 310 309 298 286 276 268 265 265 263 260 258 258 259 258 258 258 258 257 257 257 258 260 261 258
275 275 275 271 272 270 267 268 272 276 281 285 287 292 297 299 304 311 307 299 306 299 291 284 278 273 268 265 264 263 261 259 259 258 258 259 259 258 259 259 259 258 256
277 271 270 268 269 270 270 271 272 274 276 280 282 287 293 298 301 306 309 311 306 288 292 287 282 277 273 270 268 266 265 263 262 261 261 260 260 259 258 258 259 259 258
279 277 275 272 270 271 273 274 273 273 275 277 281 287 290 294 298 303 306 306 303 299 294 286 280 279 275 270 267 267 267 268 267 266 265 262 260 260 261 261 260 260 260
279 279 280 278 275 273 271 270 271 273 274 277 279 281 283 288 293 298 300 302 302 300 296 287 278 278 276 273 272 270 267 267 268 269 268 266 264 261 261 262 263 263 263
289 288 286 283 279 276 274 271 270 270 271 272 274 277 281 284 287 290 292 294 294 294 290 290 279 273 276 277 272 271 272 271 269 266 264 263 264 264 264 264 263 263 264
295 291 289 286 284 281 278 275 273 273 273 274 274 275 278 280 284 287 290 292 294 293 291 294 287 273 267 271 275 276 272 271 265 260 262 265 268 270 270 269 268 267 267
293 290 287 284 282 282 282 281 280 279 278 278 278 279 281 283 286 287 290 292 294 295 293 288 287 280 269 266 264 268 271 268 262 261 262 264 265 268 271 274 276 276 275
296 293 291 290 289 287 284 283 282 282 282 283 284 286 286 287 289 290 291 291 290 290 292 291 285 282 281 269 266 265 266 267 262 259 263 265 267 269 271 274 278 281 286
298 298 297 296 294 292 290 289 287 285 284 284 284 284 285 286 286 287 287 287 289 289 290 291 289 283 282 280 269 263 265 265 267 265 262 264 267 269 271 276 280 288 291
303 303 302 299 298 297 296 294 292 290 289 288 288 287 286 287 287 287 288 289 288 288 289 290 290 288 284 281 279 266 257 260 259 261 264 266 267 270 273 280 285 291 300
306 306 304 303 300 298 296 295 294 294 293 292 291 291 291 290 290 290 290 290 290 290 291 290 292 292 291 286 283 279 266 256 260 264 263 265 272 275 279 282 286 287 293
310 309 310 311 310 304 299 297 295 294 293 292 291 291 290 290 290 290 290 291 292 291 291 290 292 293 292 290 290 286 279 269 263 264 266 263 271 273 277 278 280 283 290
311 311 310 311 313 312 307 305 301 297 294 292 291 289 289 290 290 292 294 295 295 296 296 297 296 298 298 297 292 290 284 277 273 272 271 271 268 272 274 274 275 280 282
314 315 315 314 316 315 312 309 304 302 298 294 291 290 287 285 290 295 296 294 293 294 295 296 296 296 297 295 294 293 288 284 278 276 274 275 272 272 271 274 272 278 277
311 314 316 314 312 311 308 308 308 306 300 294 288 287 283 287 291 292 292 294 297 296 301 301 302 302 300 299 296 293 293 289 285 282 277 276 273 273 271 270 269 271 273
308 308 310 312 313 311 308 305 302 300 299 293 286 287 287 286 284 282 282 290 286 291 296 300 302 303 302 299 295 292 291 289 290 288 287 285 279 278 273 268 269 263 266